This demonstration page uses our WeatherBlox Daily Observations layout. Learn more.

Left ArrowRight Arrow

36.19886, -115.1175

Hourly Observations for August 23, 2017

Temp ( °F °C ) Dew Point ( °F °C ) Humidity (%) Winds ( mph kmh ) Pressure ( in mb ) Visibility ( mi km ) Precip ( " mm )
12:53 am 00:53 Clear 86 30 48 8.9 27 27 NW 5 7 29.92 1013 10 16 N/A
1:53 am 01:53 Clear 84 28.9 47 8.3 27 27 N 5 7 29.91 1013 10 16 N/A
2:53 am 02:53 Clear 83 28.3 46 7.8 27 27 NW 5 7 29.92 1013 10 16 N/A
3:53 am 03:53 Clear 82 27.8 50 10 33 33 WNW 5 7 29.91 1013 10 16 N/A
4:53 am 04:53 Mostly Clear 83 28.3 48 8.9 30 30 N N/A 29.91 1013 10 16 N/A
5:53 am 05:53 Clear 80 26.7 49 9.4 34 34 SW 3 6 29.93 1014 10 16 N/A
6:53 am 06:53 Sunny 80 26.7 49 9.4 34 34 NW 5 7 29.94 1014 10 16 N/A
7:53 am 07:53 Sunny 84 28.9 49 9.4 30 30 N N/A 29.95 1014 10 16 N/A
8:53 am 08:53 Sunny 90 32.2 47 8.3 23 23 N 3 6 29.94 1014 10 16 N/A
9:53 am 09:53 Sunny 92 33.3 43 6.1 18 18 N N/A 29.93 1014 10 16 N/A
10:53 am 10:53 Sunny 95 35 41 5 15 15 SE 8 13 29.92 1013 10 16 N/A
11:53 am 11:53 Sunny 97 36.1 41 5 14 14 SE 7 11 29.90 1013 10 16 N/A
12:53 pm 12:53 Sunny 98 36.7 43 6.1 15 15 N N/A 29.87 1012 10 16 N/A
1:53 pm 13:53 Sunny 95 35 44 6.7 17 17 W 10 17 29.86 1011 10 16 N/A
2:53 pm 14:53 Partly Cloudy 95 35 44 6.7 17 17 WSW 7 11 29.87 1012 10 16 N/A
3:53 pm 15:53 Sunny 90 32.2 50 10 25 25 SE 12 19 29.84 1011 10 16 N/A
4:00 pm 16:00 Sunny 90 32.2 50 10 25 25 SE 13 20 29.71 1006 10 16 N/A
4:53 pm 16:53 Sunny 92 33.3 45 7.2 20 20 VRB 5 7 29.84 1011 10 16 N/A
5:53 pm 17:53 Sunny 92 33.3 44 6.7 19 19 W 5 7 29.82 1010 10 16 N/A
6:53 pm 18:53 Sunny 92 33.3 45 7.2 20 20 WSW 7 11 29.82 1010 10 16 N/A
7:53 pm 19:53 Clear 91 32.8 44 6.7 20 20 NE 3 6 29.79 1009 10 16 N/A
8:53 pm 20:53 Clear with Nearby Thunderstorms 92 33.3 43 6.1 18 18 N N/A 29.80 1009 10 16 N/A
9:26 pm 21:26 Clear 87 30.6 45 7.2 23 23 S 7 11 29.68 1005 10 16 N/A
9:53 pm 21:53 Clear 87 30.6 50 10 28 28 SW 5 7 29.80 1009 10 16 N/A
10:53 pm 22:53 Clear 85 29.4 48 8.9 28 28 NE 3 6 29.82 1010 10 16 N/A
11:53 pm 23:53 Clear 83 28.3 53 11.7 36 36 N 3 6 29.82 1010 10 16 N/A

Powered by AerisWeather